Theta_e
299 300 299 299 298 297 296 296 297 296 296 296 296 297 297 297 297 295 296 295 299 302 304 307 308 310 311 312 314 316 318 319 318 319 320 321 321 321 322 323 325 326 327 328 329 330 332 334 335 337 338 340 342 343 345 346 347 346 344 342 341 340 339 339 335 334 334 335 335 335 335 333 333 332 332 332 332 332 333 333 333 332 332 331 330 329 331
298 298 298 298 298 298 298 297 296 296 296 295 297 298 299 299 299 300 300 298 301 304 306 307 309 311 313 314 315 316 317 317 318 318 319 320 321 321 321 322 324 325 327 328 329 329 330 331 333 335 337 339 341 343 344 345 346 345 342 341 340 340 338 336 334 335 336 335 334 334 334 332 332 332 332 332 332 332 333 333 333 333 331 330 329 329 329
295 297 298 297 296 297 297 298 298 297 296 295 297 298 298 301 299 300 300 299 301 305 307 309 310 310 311 312 315 316 317 317 318 318 318 319 321 321 322 323 324 325 326 327 328 329 329 330 332 334 336 339 341 343 344 345 345 344 342 340 340 339 336 334 334 336 336 335 334 334 333 333 333 332 332 333 333 333 333 332 332 331 331 328 328 328 328
292 296 296 296 296 295 295 296 297 296 295 294 294 296 299 299 299 298 298 297 299 305 307 311 308 309 311 312 313 314 315 317 319 318 319 319 320 321 321 323 324 325 325 326 326 328 330 331 332 333 335 338 341 342 343 344 344 342 340 340 339 338 335 334 334 335 335 335 333 333 334 333 334 333 333 333 333 333 333 332 332 331 330 329 328 328 328
290 295 295 296 294 295 292 293 296 297 296 297 297 303 305 302 301 299 297 298 304 307 309 308 308 308 310 310 311 313 315 316 318 319 319 319 320 321 322 323 325 325 326 326 327 327 329 331 332 334 337 338 340 342 343 343 341 339 339 338 338 337 335 334 334 334 333 332 332 332 333 334 334 334 333 333 333 332 332 332 331 330 329 329 328 329 329
289 294 294 294 291 287 287 295 297 299 298 297 298 298 302 304 302 300 301 302 305 307 307 308 307 307 309 312 313 315 317 316 316 318 319 320 321 321 322 324 325 325 327 328 328 329 330 332 334 336 339 339 341 342 343 341 339 338 338 337 337 335 334 334 333 333 329 329 328 329 333 333 333 333 332 332 332 333 333 332 330 329 329 329 329 329 329
290 292 294 291 286 287 296 304 307 302 300 301 300 305 306 307 306 307 307 306 305 307 309 310 310 311 312 314 314 313 315 317 318 319 319 319 322 323 323 324 325 327 330 331 331 331 331 333 334 337 339 340 341 341 340 338 338 337 337 337 335 334 333 334 333 331 328 327 327 329 331 332 333 332 332 332 331 331 331 330 329 329 329 329 329 330 330
292 292 290 286 284 295 305 307 308 313 309 307 306 304 307 308 309 307 305 306 307 308 308 309 310 310 313 314 316 316 315 317 319 318 319 320 323 323 325 326 327 328 330 332 333 334 336 336 335 337 338 340 340 339 339 338 337 337 336 335 334 333 333 333 332 329 328 327 327 329 330 332 332 332 331 329 326 325 328 329 330 330 330 330 329 330 331
291 289 288 289 296 301 304 305 306 307 305 305 304 299 303 308 311 309 306 305 306 309 310 310 311 312 312 311 312 312 316 318 320 320 320 322 325 326 327 329 330 331 331 333 334 336 337 337 336 336 338 339 338 337 337 337 336 336 335 334 333 332 332 333 331 329 328 327 327 328 331 332 332 331 329 326 325 329 330 329 328 328 328 329 330 330 330
292 290 289 293 293 290 296 302 310 311 311 311 309 303 303 307 312 312 308 307 308 309 310 310 311 312 310 308 310 313 315 316 319 318 320 322 324 325 326 324 326 329 331 333 336 336 337 336 336 336 337 337 336 335 335 335 335 334 334 333 333 332 332 332 332 330 329 328 327 329 330 331 331 331 329 327 329 332 330 328 328 328 329 330 330 331 331
293 292 289 286 288 293 298 304 308 313 313 314 309 303 299 306 312 313 308 307 308 308 309 310 310 309 304 304 309 314 317 317 318 318 319 320 321 323 323 323 327 332 334 336 336 336 336 334 333 334 336 336 335 334 334 334 334 333 333 333 333 332 332 332 332 331 330 330 329 329 331 332 332 331 329 328 330 331 330 330 329 330 331 330 330 330 331
294 288 287 290 293 298 306 307 310 313 314 312 304 295 294 303 313 313 311 309 308 309 309 311 310 306 304 307 314 317 321 329 326 320 324 329 335 337 337 335 335 337 338 337 334 334 333 332 331 334 335 335 334 334 333 334 333 333 333 333 334 334 333 332 332 331 332 331 331 332 332 333 333 332 330 330 330 330 331 331 331 330 331 330 329 329 329
294 296 290 291 298 306 309 309 311 312 314 304 296 291 297 310 312 314 314 314 315 314 314 315 313 314 310 312 316 322 327 332 335 337 338 338 338 338 338 339 340 335 333 334 334 333 332 330 331 333 334 333 333 334 333 332 332 333 334 334 334 334 334 333 332 331 332 332 332 333 334 334 334 333 331 330 330 330 331 331 330 329 329 329 329 328 328
295 291 290 292 294 301 308 311 311 313 305 295 293 303 310 311 313 315 319 317 318 318 318 319 318 319 322 325 326 328 329 330 331 335 338 340 340 340 342 341 337 334 332 331 331 330 328 330 331 332 333 333 333 332 331 331 332 333 334 334 335 334 333 332 332 332 332 333 333 333 335 334 331 330 331 332 331 331 332 331 329 329 328 328 327 325 324
296 292 291 292 292 303 311 310 309 310 299 298 306 312 314 318 317 318 317 317 318 320 318 319 320 322 324 325 326 328 329 330 331 332 333 334 335 336 337 338 339 334 330 329 329 328 329 329 330 331 332 332 331 331 330 330 331 333 334 334 334 334 332 332 333 333 334 334 334 333 333 332 331 330 332 332 332 332 330 329 329 327 326 325 324 323 324
294 291 289 291 298 306 313 310 305 310 310 313 314 315 313 315 317 319 320 320 321 321 321 321 321 322 322 323 325 326 327 328 328 328 328 328 330 331 334 335 334 333 329 328 328 328 328 328 328 329 331 331 330 329 328 329 331 333 333 333 333 332 332 332 333 333 334 334 334 333 333 332 332 331 331 331 331 331 330 329 327 325 323 323 322 323 323
299 297 297 304 310 311 314 312 312 313 315 316 317 316 315 315 316 319 320 319 320 320 320 319 318 317 320 322 324 324 325 326 327 326 326 327 328 328 329 332 334 332 331 328 327 327 327 328 328 328 329 330 331 328 327 330 331 331 332 332 332 332 331 332 332 333 333 333 333 333 333 333 331 331 330 330 329 328 328 327 326 325 322 322 322 323 323
310 310 310 314 312 313 314 315 314 312 312 312 313 312 311 312 314 318 319 320 320 320 320 319 318 317 317 320 323 325 326 325 326 328 328 328 328 329 329 330 332 331 330 329 327 327 327 327 327 329 328 330 330 327 329 331 330 330 331 331 331 331 331 331 332 333 332 333 334 334 334 333 332 332 331 330 329 327 326 325 325 324 322 322 322 321 321
302 298 309 310 312 313 312 315 315 314 314 313 313 312 311 311 311 312 313 316 319 321 322 321 320 319 319 320 322 324 324 324 325 326 326 326 326 325 327 328 332 329 329 327 327 329 328 327 327 328 327 329 329 328 330 330 329 330 330 330 331 330 330 331 332 333 333 333 333 333 333 332 332 332 331 329 328 326 326 325 323 322 322 322 322 321 321
302 304 309 313 315 315 315 313 313 313 314 314 315 315 315 315 315 314 314 314 313 315 315 317 319 319 322 322 321 323 324 325 326 325 326 326 326 324 325 328 330 328 328 327 329 328 328 327 328 328 328 329 329 329 330 329 329 329 330 329 329 328 328 329 331 333 333 337 334 332 331 330 328 327 326 327 326 326 324 324 323 322 322 323 322 322 321
308 312 313 313 312 313 314 315 311 314 313 312 311 312 312 312 310 310 311 312 312 312 313 314 313 313 314 316 321 324 323 324 324 325 324 324 324 324 327 328 331 327 328 329 328 329 328 327 327 327 328 330 332 331 330 330 329 328 328 331 329 328 328 329 330 333 332 336 332 327 319 312 307 306 310 317 320 313 310 311 318 323 323 321 322 321 322
303 304 307 310 305 304 309 313 315 312 314 311 309 309 309 309 309 309 310 310 312 312 313 313 313 313 314 316 321 322 323 324 324 324 324 324 324 324 326 327 327 327 330 329 328 328 326 326 327 327 328 329 333 335 334 332 329 328 329 330 329 328 329 329 329 332 330 329 326 322 317 313 309 305 302 296 302 312 310 306 302 299 307 321 321 318 314
299 307 311 309 310 310 310 312 315 314 315 310 308 308 308 309 310 310 310 309 310 311 312 313 312 312 313 314 317 319 322 325 326 325 325 326 326 327 327 327 327 327 327 329 328 328 326 327 327 328 328 330 332 333 334 334 332 330 330 329 329 329 329 329 329 330 328 326 324 320 317 315 313 309 307 303 294 295 300 300 297 295 297 299 303 308 313
305 307 306 307 307 306 308 310 311 313 313 311 309 310 310 310 310 311 310 310 309 309 310 311 312 311 311 312 313 313 315 320 325 327 328 327 326 326 327 326 325 326 327 327 327 327 325 326 328 328 329 330 332 333 333 333 333 332 331 330 328 327 328 329 330 329 327 325 320 317 316 315 314 313 311 308 305 296 293 294 295 294 294 295 296 298 301
306 310 309 309 308 308 310 311 311 312 314 315 311 310 309 309 310 311 310 310 310 310 310 310 311 312 311 311 312 312 312 315 320 322 325 328 330 329 328 328 325 325 326 326 326 324 324 326 327 328 329 330 332 333 333 332 332 331 331 331 329 328 328 330 331 332 326 323 320 317 315 315 314 314 313 312 309 306 302 295 292 292 293 294 295 295 296
312 310 311 310 310 310 311 310 310 311 312 312 311 312 316 318 314 311 310 310 310 311 310 310 310 311 312 311 312 312 312 314 318 317 314 315 318 323 326 328 328 327 326 326 324 324 324 325 325 326 327 329 331 332 331 331 331 331 331 330 329 329 329 329 329 328 325 323 320 318 317 317 315 315 316 314 311 308 307 308 307 301 295 293 292 293 292
315 316 314 309 307 308 311 309 308 312 313 314 312 311 311 310 314 311 311 310 310 310 310 311 311 311 311 312 316 315 313 314 314 313 313 315 317 319 323 327 328 328 328 326 324 325 326 327 326 326 327 328 329 331 331 330 330 329 329 329 330 334 335 333 329 327 324 322 320 318 318 317 317 318 317 316 314 312 311 311 309 307 305 304 298 294 299
310 310 314 308 306 307 309 312 313 313 311 309 309 309 309 311 309 309 309 309 310 310 310 310 311 310 310 310 311 311 311 311 311 312 313 314 316 320 323 325 327 327 327 327 326 327 329 325 324 324 323 323 326 329 331 331 330 329 328 329 331 333 335 334 330 327 324 321 319 319 318 318 319 318 319 318 316 314 312 313 311 308 306 306 306 299 294
309 309 311 312 311 311 310 308 309 309 307 309 309 309 309 308 307 308 307 308 309 310 309 309 311 311 310 310 311 311 311 311 312 312 312 315 319 319 323 325 326 327 327 327 325 325 325 323 322 322 322 324 325 327 328 328 328 328 328 329 331 333 332 330 328 326 324 321 319 319 319 320 320 319 319 318 316 314 313 313 311 309 306 305 306 306 306
310 310 308 307 308 308 306 305 305 305 306 306 306 306 307 307 306 306 307 307 308 308 308 309 310 310 311 311 311 310 311 311 312 312 314 315 316 318 321 322 323 324 323 324 323 324 324 322 321 322 323 324 326 327 328 327 327 328 329 329 330 329 327 326 326 325 323 321 320 320 321 320 319 319 318 316 315 314 313 312 311 309 306 307 308 308 308
310 311 309 307 306 306 304 304 305 306 306 306 306 306 305 306 305 306 307 307 308 308 308 309 311 310 311 310 310 311 312 312 312 313 314 315 316 317 318 320 322 323 324 324 323 322 322 322 322 323 323 325 327 326 326 326 327 326 325 324 325 322 322 323 324 325 323 323 322 321 320 319 318 318 317 316 315 314 313 313 311 309 308 308 309 309 309
304 304 304 304 303 303 303 303 304 304 304 305 305 304 305 305 305 306 309 309 309 310 308 309 309 310 311 311 312 312 311 312 312 313 314 315 316 317 317 318 320 325 325 324 323 323 323 322 322 323 323 325 326 326 326 326 326 325 324 327 323 324 323 322 324 324 326 325 324 322 321 318 317 318 318 317 315 314 313 312 310 309 308 308 309 310 311
303 302 302 302 303 303 302 302 303 303 304 304 304 304 305 306 307 310 310 311 309 310 309 309 309 310 311 312 311 311 311 311 311 312 313 314 316 317 317 319 318 318 319 320 322 322 322 321 321 323 324 324 325 325 325 325 325 325 324 323 323 324 325 322 322 325 327 325 323 322 321 320 320 319 318 318 317 316 314 313 311 310 310 310 310 311 311
304 302 302 303 303 302 302 302 303 304 304 305 305 306 307 308 308 310 312 312 310 310 309 309 310 311 313 312 312 312 312 311 312 313 312 313 315 316 315 317 316 316 317 318 319 319 320 320 321 322 323 325 325 325 325 324 323 324 324 323 323 323 322 322 323 325 324 323 322 323 322 321 320 320 320 319 318 316 315 314 314 312 310 310 309 310 304
306 305 306 305 305 306 306 305 304 305 305 305 306 307 307 308 308 310 315 311 309 309 310 310 311 313 314 313 312 312 312 311 311 311 312 314 315 315 314 316 316 317 317 317 317 317 320 321 323 324 324 325 325 324 323 322 321 322 322 323 324 323 323 324 324 323 322 320 320 319 319 319 319 321 321 320 318 317 316 316 315 313 311 310 309 308 305
308 307 307 307 307 307 307 307 307 307 306 305 307 309 309 309 310 309 309 309 310 311 311 312 314 314 313 313 312 312 312 312 312 312 312 313 314 313 313 315 315 315 316 316 317 318 321 323 330 330 325 324 324 324 324 322 320 320 321 319 320 322 322 322 322 321 320 319 318 319 318 319 320 320 320 319 318 317 317 316 315 315 312 311 309 308 307
309 307 307 307 307 307 307 307 308 308 308 307 308 309 310 310 310 310 312 311 312 312 313 314 314 314 313 313 313 313 313 312 313 313 313 314 314 313 312 313 315 316 317 316 317 320 321 323 330 329 326 324 324 324 327 326 320 320 320 320 319 320 320 319 319 318 317 318 318 318 319 320 318 319 319 317 316 316 316 316 316 314 312 311 310 309 307
309 309 308 307 308 308 308 309 311 310 310 309 309 311 312 310 310 310 310 311 313 313 315 314 314 313 314 315 314 313 313 314 315 315 314 314 314 313 313 313 313 314 315 315 318 320 323 327 328 325 322 323 323 325 327 327 325 320 319 320 321 321 321 320 319 318 317 317 319 317 317 316 316 316 316 314 314 315 315 315 315 313 311 311 309 308 307
309 309 309 310 310 309 309 309 310 310 310 309 309 310 312 313 312 311 311 311 313 315 315 314 314 314 314 313 313 313 314 315 316 315 314 313 314 313 312 313 313 314 315 317 319 322 325 323 321 321 322 322 323 325 326 326 323 319 319 319 319 319 319 318 317 317 316 317 316 315 314 314 314 314 313 313 313 314 315 314 314 313 310 310 308 308 307
308 308 309 310 309 309 309 309 309 309 311 310 310 310 311 311 311 310 310 312 314 316 314 313 313 313 313 312 312 312 314 316 316 314 313 312 311 312 314 316 318 320 321 324 323 324 326 325 320 318 319 321 322 323 325 326 323 319 318 318 319 319 318 318 317 316 316 315 317 318 314 314 313 314 313 313 313 313 313 314 314 312 310 309 308 307 307
308 308 309 309 310 310 309 309 309 309 309 310 311 311 311 311 311 311 311 312 314 315 314 312 313 314 312 312 312 312 313 316 317 316 316 314 312 312 313 313 317 320 323 322 323 323 322 320 318 316 317 319 320 325 324 326 318 316 316 317 317 317 317 317 317 317 315 316 317 315 313 313 313 313 313 312 312 312 313 313 313 312 310 309 307 307 307
308 308 308 309 309 310 310 310 310 310 311 310 312 312 311 312 312 312 313 314 314 314 313 312 317 317 314 312 312 312 312 312 313 314 315 314 312 311 311 314 317 320 324 324 323 322 321 320 320 320 317 319 322 324 321 316 313 316 317 318 318 319 319 319 317 315 316 315 313 312 313 311 311 311 312 312 311 311 311 312 312 312 310 309 308 307 306
309 308 307 307 308 310 310 310 309 310 310 311 311 311 311 311 311 312 313 314 314 314 314 312 312 313 313 310 309 310 310 311 311 311 312 312 313 314 312 311 314 317 322 321 319 316 316 316 316 316 321 320 321 321 316 310 310 312 314 316 317 316 315 314 313 313 312 311 311 311 311 312 311 311 311 311 311 311 310 310 310 310 310 309 308 307 306
308 307 307 307 308 310 309 308 309 309 309 310 310 310 310 311 310 310 312 314 314 314 314 311 310 311 312 312 312 310 311 311 311 310 309 311 313 313 313 313 315 319 323 322 319 317 316 317 315 318 321 321 319 315 310 308 308 309 310 310 311 311 310 309 308 308 308 309 308 307 308 311 311 310 311 311 310 310 309 309 309 310 310 309 309 308 307
307 307 307 308 309 308 306 307 308 308 309 309 308 309 311 310 310 310 311 311 313 314 314 313 312 312 312 312 311 310 310 311 312 312 311 311 312 312 314 321 319 320 322 322 317 316 315 314 317 321 323 319 316 312 306 306 307 307 307 307 307 308 307 306 306 306 307 306 306 306 307 307 308 308 308 308 309 309 309 309 309 309 309 309 308 307 307
307 307 307 313 309 306 306 307 308 308 308 307 307 309 310 309 310 310 311 311 311 312 312 312 312 312 312 312 312 310 309 310 312 313 314 314 313 313 316 321 320 322 322 321 316 314 312 318 318 320 321 317 315 308 306 310 309 306 306 306 307 308 306 307 307 306 306 306 306 306 307 305 305 305 305 304 305 307 307 309 309 309 308 309 309 309 308
306 307 306 306 306 307 307 307 309 308 305 306 306 306 309 310 310 310 309 309 309 311 311 310 310 311 311 311 312 311 311 312 312 312 312 313 316 319 321 323 323 323 322 317 314 314 313 318 320 320 319 317 313 305 305 304 304 304 305 305 306 306 306 304 304 304 306 305 307 309 310 309 306 304 305 307 306 307 307 307 307 308 308 307 308 308 308
306 306 306 306 306 306 307 306 306 306 305 304 305 307 308 308 308 309 309 308 309 309 310 310 310 310 311 311 310 312 312 312 310 311 310 312 313 315 317 318 320 322 321 319 318 318 318 318 317 319 319 317 310 303 304 303 303 304 303 305 303 302 303 302 302 302 303 304 308 305 304 304 303 302 303 303 303 303 304 306 306 307 307 306 306 306 307
305 305 307 308 307 307 307 308 309 309 305 305 308 307 308 309 309 308 308 309 308 308 309 310 309 309 309 312 315 315 315 315 312 312 311 312 314 315 315 320 321 321 318 316 315 314 317 312 313 314 317 316 303 303 303 303 306 306 306 304 303 303 302 301 301 301 301 303 304 304 304 304 302 302 302 304 304 303 305 305 306 306 306 305 305 305 306
306 308 307 305 306 306 306 305 305 305 304 308 307 307 307 308 308 307 309 309 310 314 311 309 308 308 307 307 308 308 308 311 313 314 315 314 313 314 318 318 318 320 317 314 313 312 316 315 313 313 317 309 303 304 304 304 304 306 305 306 305 303 305 302 302 302 301 304 303 304 304 304 302 302 304 304 303 304 304 305 304 304 303 304 304 304 305
308 307 305 309 310 310 308 306 306 307 307 308 308 309 312 310 309 311 311 311 311 311 311 310 309 309 307 306 307 309 310 310 312 319 319 315 315 317 318 317 318 319 318 316 313 312 310 311 310 312 315 309 304 305 305 306 305 306 308 306 306 305 305 303 303 303 302 304 303 303 304 304 303 303 304 303 304 305 305 306 305 305 305 305 305 305 304
307 306 305 305 306 307 307 307 308 308 309 310 309 309 309 310 310 309 308 316 313 311 310 308 309 309 306 305 309 310 310 312 314 314 318 319 317 315 317 320 318 317 318 315 312 310 309 310 312 313 313 310 304 304 308 310 307 306 307 308 307 307 307 306 306 304 304 305 305 304 305 304 303 303 304 304 304 304 305 305 305 305 305 304 304 304 304
Wind_Speed
15 14 14 8 5 7 7 9 8 9 9 9 13 10 11 10 9 12 8 8 8 9 11 14 15 13 13 14 17 16 9 2 3 6 7 10 11 8 9 9 9 9 10 10 11 11 11 10 10 11 10 9 8 8 8 10 11 13 12 12 12 12 12 11 10 15 18 18 16 13 14 13 13 12 10 10 9 8 8 8 7 8 7 7 6 7 8
13 13 11 5 10 5 4 5 7 7 9 11 13 12 9 14 9 11 12 13 16 12 12 12 14 13 11 7 2 2 5 9 11 9 10 13 12 12 11 11 10 10 10 10 10 9 7 10 11 10 9 10 10 11 11 11 12 11 11 13 14 13 12 11 14 16 16 13 13 15 15 14 13 12 10 9 9 9 8 8 8 6 5 5 6 9 9
9 12 11 7 8 10 11 11 9 8 7 9 11 8 5 5 7 4 2 9 12 9 7 9 1 3 4 4 7 11 8 6 9 10 12 12 12 11 9 8 9 9 8 7 6 7 8 9 10 10 9 8 8 9 10 12 13 12 13 12 13 12 12 13 14 14 13 11 11 9 6 8 10 10 10 8 8 8 7 8 8 5 4 6 7 7 8
6 5 8 11 8 9 11 14 12 10 6 6 4 5 7 7 8 5 3 5 10 10 4 3 3 5 7 9 10 8 7 9 10 12 13 11 9 8 9 9 8 8 8 8 9 10 9 8 7 8 8 8 9 11 11 12 10 8 9 10 11 12 13 13 14 15 13 12 11 8 6 5 6 6 7 6 6 7 8 7 7 4 6 7 7 7 6
6 9 6 10 6 2 5 10 12 12 9 7 4 2 5 8 7 7 7 10 11 12 6 6 3 7 10 7 6 7 6 6 11 12 9 7 7 9 8 9 10 10 10 9 8 6 5 7 7 6 6 7 9 10 10 8 7 9 10 11 12 13 13 13 14 14 11 10 11 9 5 3 7 5 7 7 6 7 8 7 3 4 7 7 7 7 7
5 9 4 2 4 8 8 7 6 11 12 10 8 6 7 4 6 8 8 9 3 2 6 10 8 7 10 15 14 10 13 13 9 7 8 9 8 6 6 7 7 5 5 5 5 7 8 9 11 11 11 13 13 11 9 8 11 11 12 12 13 13 13 13 12 10 9 10 12 10 4 2 6 5 6 8 8 5 3 6 7 8 8 8 8 8 8
5 3 5 2 7 8 6 2 3 7 11 14 12 5 3 2 2 4 7 9 7 8 9 14 13 9 3 1 5 4 5 7 9 12 11 8 8 9 8 6 6 7 8 7 7 8 8 8 6 8 9 9 7 7 9 10 10 12 12 12 12 12 12 10 9 9 11 11 10 10 11 11 9 6 6 8 7 7 10 9 7 8 8 8 8 9 9
1 1 3 3 5 3 2 1 4 6 10 10 15 4 1 1 1 2 5 8 7 7 8 3 2 4 2 3 4 0 6 9 10 9 10 9 9 9 9 10 8 9 9 10 10 9 6 7 7 9 9 7 8 8 8 10 10 11 12 12 11 9 10 10 10 11 12 12 11 11 10 8 8 10 12 11 11 10 7 5 6 7 7 8 9 9 9
3 2 3 5 2 2 0 1 2 2 3 2 2 7 2 2 1 2 3 5 4 2 1 3 6 7 6 4 4 6 3 1 1 5 5 8 9 7 7 9 11 9 8 9 8 6 7 7 8 7 6 7 7 8 9 9 10 9 9 9 9 10 10 11 12 13 14 15 14 12 13 14 14 13 12 12 10 5 6 7 7 8 9 8 8 9 9
3 3 0 1 1 3 6 3 1 1 1 1 2 3 2 1 3 1 1 1 3 1 1 5 7 7 9 4 1 7 7 4 1 3 3 3 3 4 7 3 5 5 5 4 4 7 8 6 4 5 6 8 8 8 8 8 9 9 10 10 10 12 12 12 13 14 14 14 14 14 14 14 14 13 11 8 6 6 7 7 7 8 8 8 8 8 9
2 1 3 3 5 5 6 2 2 1 1 1 4 4 3 0 4 2 4 5 1 4 5 3 4 7 6 2 3 6 6 5 2 5 6 6 6 4 4 5 9 7 6 7 8 7 8 7 4 5 7 8 8 8 8 9 9 10 10 10 12 13 13 13 13 14 14 14 14 14 14 14 13 12 11 8 6 6 6 7 8 7 7 7 7 7 8
1 3 3 3 2 2 1 3 4 5 4 1 4 6 4 3 8 5 2 8 4 4 7 9 9 7 7 2 2 4 4 4 4 4 7 7 7 8 7 7 6 7 6 8 7 7 6 6 6 7 7 7 7 8 8 7 8 9 10 12 12 12 12 13 13 14 14 16 16 15 15 13 12 13 8 5 7 7 8 8 7 7 7 8 9 8 7
5 2 1 3 1 2 2 5 10 9 4 3 6 8 5 3 5 4 1 7 6 5 6 5 9 1 4 4 1 3 1 7 10 9 9 9 9 9 8 7 6 8 8 7 5 4 4 6 6 6 6 6 7 5 6 6 7 8 9 10 12 11 11 12 13 14 13 14 15 14 13 12 11 8 7 7 7 7 7 6 7 7 8 7 7 6 6
7 4 1 3 3 3 4 8 11 6 2 4 7 4 0 1 2 4 1 10 11 15 14 11 8 3 2 4 5 9 11 11 6 8 9 11 11 8 8 7 8 8 6 6 6 5 4 4 5 5 6 6 3 4 5 6 6 7 9 10 10 11 12 13 14 13 13 12 12 12 11 9 8 8 7 6 6 6 6 6 8 8 7 6 5 5 4
1 3 0 2 4 2 9 17 6 3 2 2 3 6 4 2 2 3 4 6 7 14 14 11 9 7 7 8 10 11 11 12 11 11 11 10 9 8 8 9 7 7 7 5 4 3 3 4 4 4 5 5 4 4 6 6 6 8 9 10 11 11 12 12 12 12 11 12 10 8 8 9 8 8 6 6 6 6 7 7 8 8 7 6 6 5 5
3 4 1 0 2 9 12 4 3 3 3 6 6 8 7 2 3 4 7 7 7 12 14 13 11 9 10 9 9 11 11 11 9 9 9 9 8 7 6 5 4 6 6 4 3 3 3 2 3 3 4 5 5 6 6 5 7 8 9 10 10 11 11 11 11 10 10 10 9 8 9 8 8 7 6 5 5 6 6 7 7 7 5 6 6 6 6
3 3 4 3 2 5 7 8 6 4 7 4 2 7 8 8 6 1 9 8 9 12 14 13 12 13 10 9 10 11 9 10 10 9 7 7 8 7 7 7 5 5 3 4 3 2 2 3 3 4 4 6 6 7 6 6 8 9 9 9 10 10 10 10 10 9 9 9 9 8 8 8 8 7 6 6 7 6 6 6 7 7 6 6 7 7 6
5 4 4 4 3 6 9 8 6 6 6 5 5 6 8 5 4 4 8 6 8 8 9 12 8 8 8 11 11 11 11 10 8 7 7 6 5 6 4 5 5 3 3 2 4 4 3 3 4 4 4 6 7 6 6 6 7 8 9 9 9 9 9 9 10 9 10 9 9 9 10 9 9 8 9 9 9 7 6 6 6 7 7 6 6 5 5
5 1 3 3 3 5 7 6 6 7 5 3 2 7 7 5 6 7 7 6 6 6 8 11 9 6 6 9 7 7 7 7 5 4 4 2 2 5 4 0 0 1 2 3 4 4 3 2 3 3 4 3 5 6 7 7 7 8 8 9 8 8 9 9 9 9 10 9 9 9 9 7 7 7 7 8 8 6 6 7 6 6 6 6 5 5 4
6 9 8 2 4 5 4 3 2 5 5 6 6 5 5 4 5 6 7 7 9 7 10 7 10 9 8 4 3 5 5 4 2 1 1 1 0 2 1 1 0 1 3 5 4 1 1 2 3 3 3 4 5 7 6 6 6 7 7 8 8 8 9 8 8 8 8 10 10 7 6 5 5 4 4 5 7 8 8 8 8 6 5 5 6 5 4
4 10 2 3 7 8 5 4 5 2 2 5 6 7 8 9 11 11 11 10 8 9 7 6 8 11 8 6 5 5 3 2 1 2 3 1 1 3 3 2 4 6 3 2 1 1 0 3 4 4 5 4 5 7 7 6 7 8 8 9 8 9 8 8 8 7 6 6 6 6 6 7 7 5 2 1 3 4 4 2 1 4 5 4 3 3 4
11 11 12 11 13 8 4 4 3 3 2 7 9 9 10 9 10 9 13 11 9 11 9 8 9 10 7 8 7 8 6 5 5 5 3 1 0 1 2 2 1 2 2 2 2 1 2 3 4 5 6 6 5 5 6 7 8 8 8 7 8 9 9 9 8 7 6 5 6 7 7 6 7 7 10 8 6 3 2 5 4 3 1 3 4 4 5
2 2 4 4 5 11 5 4 1 2 1 9 12 10 9 10 9 9 11 12 13 13 12 10 12 11 10 8 8 11 10 9 6 4 4 5 5 5 6 6 5 4 4 2 1 2 3 4 5 6 6 6 6 6 6 6 8 8 8 7 7 7 7 7 7 6 7 6 5 6 6 7 6 7 5 8 13 12 8 7 6 7 7 8 9 6 7
5 6 8 5 5 8 7 8 6 7 6 7 12 9 8 10 12 13 13 10 10 8 9 10 9 8 9 8 9 9 8 9 10 9 6 5 5 5 5 4 3 5 6 5 3 3 3 4 5 5 5 5 7 7 5 5 6 7 7 7 7 6 5 6 7 6 5 6 6 6 6 7 8 7 6 6 6 11 10 9 10 10 10 10 10 10 10
4 5 10 12 14 12 9 8 9 8 7 10 12 11 10 11 11 10 10 9 8 9 9 9 8 8 8 8 8 8 7 7 8 9 9 9 8 5 3 1 2 4 5 5 3 3 4 5 4 4 5 6 6 5 4 5 5 6 7 7 6 7 7 8 8 9 8 7 8 8 8 8 7 6 6 6 7 4 6 10 12 13 13 11 11 11 11
7 7 10 11 12 10 6 12 16 13 10 10 11 8 8 9 8 8 8 7 8 7 8 8 9 9 8 9 8 7 9 9 7 8 9 9 8 6 5 5 5 4 5 5 4 4 5 5 5 5 6 6 5 4 4 5 6 7 9 9 8 8 9 9 9 7 6 5 6 7 8 8 7 7 5 4 5 6 6 5 7 10 11 10 9 10 9
9 5 11 16 15 13 12 12 6 4 6 6 8 8 6 4 6 6 5 6 6 6 7 6 5 4 6 6 5 7 7 6 8 10 8 9 10 7 6 5 6 6 5 5 5 5 5 5 4 5 5 4 4 3 4 5 5 5 4 5 5 7 14 10 7 7 6 6 6 7 8 7 7 7 6 5 5 6 6 7 6 5 4 2 3 5 4
7 6 3 9 6 8 8 8 7 5 3 2 3 6 3 2 7 11 11 10 9 8 8 8 8 9 9 8 8 9 10 10 8 7 9 9 8 7 7 6 5 5 5 4 5 2 1 3 3 2 2 1 2 2 2 2 3 4 5 5 5 5 6 7 6 6 6 6 6 7 7 7 7 7 6 6 5 5 5 5 6 6 4 2 2 2 5
9 9 8 10 10 8 6 4 2 2 4 3 3 3 5 9 8 9 8 7 5 5 8 8 6 6 6 6 6 7 6 7 7 8 6 6 6 8 8 6 4 3 2 1 1 1 2 3 4 4 4 4 6 6 5 5 4 4 4 4 3 4 5 5 6 6 6 6 6 6 7 7 8 7 7 6 5 5 4 5 5 5 5 4 4 3 2
6 5 5 4 5 4 6 6 6 5 5 3 7 6 5 7 8 6 6 6 6 7 4 4 5 6 5 6 5 5 5 5 5 5 4 5 5 6 7 6 3 2 1 0 2 3 4 4 5 5 5 5 6 8 8 7 6 6 3 1 2 4 4 6 5 6 7 7 8 10 8 8 8 8 8 7 6 5 5 5 5 6 6 5 5 5 6
2 4 8 5 3 4 10 7 2 2 2 2 3 5 5 6 7 6 5 4 5 5 5 4 4 5 5 5 3 3 3 4 4 5 5 6 5 4 5 4 4 5 6 5 3 5 5 6 6 6 4 4 3 3 5 2 3 6 6 6 5 7 9 10 8 7 7 8 7 7 7 7 7 7 8 7 7 6 6 5 5 5 5 5 5 5 4
7 7 6 3 4 7 5 3 4 5 4 4 7 7 5 6 7 6 4 4 3 2 3 5 5 4 4 3 3 3 3 4 5 5 6 6 7 6 5 4 4 5 6 6 5 5 5 5 7 4 1 1 3 5 6 3 2 3 3 5 5 3 6 8 6 6 6 7 6 5 5 6 5 5 6 6 7 7 7 7 6 6 5 6 6 5 5
4 7 6 4 5 6 6 4 5 5 5 6 4 3 4 4 4 3 3 1 2 3 4 4 4 3 3 2 2 3 4 4 3 3 5 6 7 6 6 4 3 4 5 4 3 2 2 3 4 5 5 4 4 6 6 5 5 6 5 6 5 5 4 5 6 7 6 6 6 6 6 5 6 5 6 6 6 6 6 7 7 6 6 5 5 4 5
9 7 5 2 3 5 4 3 3 4 4 3 4 5 5 4 3 2 2 2 3 4 4 4 4 4 3 3 3 3 3 4 5 5 6 7 7 6 4 3 2 2 1 1 3 4 4 5 5 5 5 6 5 4 5 4 3 2 3 5 5 6 6 5 6 6 6 5 5 7 7 7 6 6 6 6 6 6 6 7 7 6 5 5 4 4 5
6 5 4 3 2 3 3 4 3 3 4 5 5 4 3 2 3 3 4 4 4 3 3 3 4 3 3 3 3 4 3 3 4 6 6 6 8 7 5 3 1 0 1 1 2 4 4 4 4 5 6 6 7 7 5 5 4 2 3 2 3 4 4 5 6 5 6 5 6 6 6 6 7 7 7 7 7 7 6 7 7 7 6 5 4 4 4
6 6 6 6 5 5 5 4 3 2 3 3 2 2 3 3 3 4 3 3 3 3 3 4 4 5 4 5 5 5 6 5 5 5 6 6 7 6 5 4 3 2 2 1 2 3 1 1 4 7 5 5 6 7 6 6 7 7 9 8 7 7 6 4 2 5 5 5 5 5 5 6 7 7 7 6 6 7 7 7 7 6 6 5 5 5 4
6 6 5 5 5 5 5 5 4 4 3 3 3 4 5 4 4 2 2 3 4 4 4 5 6 6 6 6 6 5 4 5 5 5 6 6 5 3 4 4 4 4 4 3 4 4 2 2 4 10 6 5 4 5 7 12 8 9 10 10 9 8 6 6 5 5 5 5 6 5 5 6 6 6 6 6 7 7 7 7 7 6 4 5 5 5 5
4 5 5 4 4 5 4 4 3 4 4 4 4 3 3 3 4 4 4 5 6 6 6 5 5 5 5 5 5 6 7 7 7 7 6 5 3 4 4 4 4 4 3 3 4 4 2 2 7 5 3 4 4 4 5 8 8 7 7 7 7 7 7 6 6 6 6 5 5 5 6 5 5 5 5 4 4 6 7 7 6 6 5 5 5 5 5
5 3 3 3 4 4 4 5 5 4 5 5 4 4 4 4 4 5 5 6 6 6 6 5 6 6 7 7 6 6 7 7 6 5 5 5 4 4 3 2 2 2 3 3 2 4 5 5 5 5 5 7 8 8 8 9 6 4 5 5 5 5 5 5 5 5 4 5 5 5 5 4 5 5 5 4 4 4 5 6 6 5 5 5 5 6 5
4 5 4 4 5 4 5 5 5 5 4 3 4 5 5 5 5 5 6 6 7 7 6 6 8 7 7 8 7 7 7 6 6 4 5 4 4 4 3 4 5 4 2 3 2 2 6 8 6 4 4 4 3 3 4 6 5 4 5 5 4 4 4 4 5 5 5 4 5 5 4 4 4 4 4 4 4 5 4 5 5 5 5 5 5 5 5
5 6 6 6 5 5 6 6 6 4 4 5 4 3 3 4 4 5 7 5 5 6 7 6 6 6 6 6 5 5 5 5 5 5 4 4 5 4 4 4 4 3 2 4 4 5 5 3 3 4 3 3 2 3 3 4 5 4 4 5 4 4 4 4 4 4 4 4 4 4 4 3 3 3 3 3 4 4 4 5 5 5 5 5 5 5 6
7 6 7 7 6 6 6 5 5 7 7 5 5 5 5 5 5 5 5 5 5 5 6 6 6 5 4 3 3 3 4 5 4 4 4 4 4 4 3 2 4 3 4 5 5 4 4 3 4 3 1 1 1 3 4 3 3 4 4 4 4 4 4 4 5 4 4 4 4 4 4 4 3 3 3 3 3 3 4 4 4 5 5 5 6 6 7
6 6 6 5 5 5 6 5 5 5 5 6 6 6 5 5 4 4 4 4 5 5 5 5 5 5 5 3 2 3 4 4 5 5 6 5 3 3 2 2 2 3 1 2 3 4 3 3 2 1 2 2 4 8 7 4 4 4 4 4 4 4 5 5 5 4 4 4 4 4 4 3 4 4 5 5 4 4 4 4 5 5 6 6 6 6 7
4 3 3 4 4 3 3 4 5 5 5 6 5 4 4 4 3 3 4 4 4 5 5 5 6 6 6 6 5 5 6 6 6 5 5 7 7 4 1 2 3 4 4 1 1 1 1 2 1 2 3 7 9 9 5 4 4 5 5 5 5 5 5 5 4 4 4 4 4 4 4 3 2 2 2 2 2 3 4 5 5 6 6 6 6 6 6
4 3 3 3 3 3 3 4 4 4 4 4 4 3 3 4 4 3 3 4 4 5 5 5 5 6 6 6 5 4 4 4 3 3 4 5 5 3 3 2 3 3 4 3 1 1 1 1 1 2 4 9 9 8 5 5 5 5 5 5 5 5 5 5 5 5 5 5 5 4 4 4 3 2 2 2 3 3 4 4 5 6 6 6 6 6 7
4 4 3 4 3 3 2 1 3 2 3 3 5 4 3 4 5 5 4 3 4 4 3 3 3 4 4 5 5 5 4 4 5 4 5 5 4 4 4 2 2 3 2 0 2 1 1 1 2 4 7 9 8 6 5 4 4 4 4 5 5 5 5 4 4 4 4 4 4 4 4 4 3 3 3 3 3 3 4 5 5 6 6 7 8 8 7
4 4 3 3 4 4 1 1 1 2 4 4 6 6 6 5 6 6 5 4 3 4 3 3 4 4 3 3 3 4 5 5 5 3 3 4 4 4 5 2 5 4 3 2 1 1 2 1 2 5 8 9 8 5 5 4 4 4 4 4 4 4 4 4 4 4 4 4 3 2 2 2 3 3 3 2 3 3 3 4 5 5 6 6 7 8 6
3 3 3 3 4 5 2 1 2 4 4 3 4 5 6 5 5 6 5 3 4 4 3 3 4 4 3 3 3 4 4 2 4 5 3 3 2 2 1 3 3 4 4 3 3 2 2 2 4 5 7 8 5 5 4 4 4 4 5 4 4 4 4 4 4 4 4 3 3 3 3 3 3 2 2 3 3 3 3 4 4 5 5 5 6 6 6
2 2 3 2 3 4 4 2 2 3 3 2 2 4 4 5 6 6 5 5 5 5 5 5 4 5 5 4 3 3 3 3 3 4 4 3 2 1 1 1 4 5 3 3 3 3 2 2 2 2 5 6 4 4 4 4 5 4 4 5 5 4 4 4 5 4 4 4 4 4 4 3 3 3 4 3 3 3 3 3 4 4 4 4 5 5 5
3 2 3 2 2 4 5 4 3 4 3 2 3 4 3 3 6 7 6 5 6 6 6 6 6 5 5 5 4 3 3 3 3 3 4 3 3 3 3 3 3 4 4 4 4 4 3 4 3 3 3 4 4 4 4 4 5 5 5 5 5 5 6 6 4 5 5 5 4 3 3 4 4 3 3 3 3 3 3 3 3 3 5 4 4 4 4
5 4 3 2 3 5 4 3 3 3 4 4 4 3 2 3 5 5 5 5 5 5 6 7 6 6 5 5 4 3 3 2 3 4 4 4 2 3 4 4 4 4 4 4 4 5 5 4 4 4 3 4 4 5 4 5 5 6 5 6 6 6 6 5 5 5 5 5 5 5 5 4 4 4 4 4 4 4 4 3 3 2 2 2 3 3 4
4 4 4 4 4 4 4 3 3 3 3 3 3 3 2 2 3 5 6 5 3 4 4 5 8 7 4 4 5 5 4 4 4 4 4 4 4 4 4 5 4 5 5 4 5 4 5 5 4 5 5 5 5 5 5 6 5 5 6 6 4 5 5 5 5 5 5 5 5 5 5 5 4 5 5 5 4 4 4 3 3 2 2 2 2 2 3
Wind_Direction
231 226 224 189 190 192 190 196 194 195 199 170 185 207 206 143 198 220 234 180 196 226 216 214 214 204 206 206 209 209 210 191 131 131 162 186 199 187 181 189 182 182 187 190 193 192 198 191 194 200 199 198 197 199 193 187 183 188 178 175 175 176 179 172 133 144 164 175 175 167 172 178 186 190 192 185 183 186 191 201 201 212 210 211 210 222 229
235 238 238 196 189 221 235 215 206 199 171 188 194 210 197 183 205 210 209 182 206 208 215 216 222 214 205 202 131 106 169 187 183 179 182 192 196 192 189 188 187 188 193 193 196 190 182 189 196 195 195 193 193 192 192 188 190 187 168 179 175 176 170 151 157 171 177 178 171 171 179 179 187 186 189 183 181 188 197 202 216 214 220 209 209 220 223
241 239 231 220 200 209 230 237 232 227 200 191 202 211 204 211 253 291 202 186 228 246 217 219 272 74 93 122 180 195 196 162 176 185 194 198 196 192 191 182 184 189 191 192 177 178 190 193 197 196 193 190 187 191 193 193 194 185 177 175 176 167 158 166 166 174 178 179 164 171 167 174 189 190 186 184 181 184 190 207 218 192 184 218 223 223 219
275 234 213 222 205 211 227 243 239 233 221 213 193 201 194 163 210 205 123 192 239 260 225 167 138 142 158 189 196 190 186 187 182 192 200 198 193 190 189 183 178 182 186 181 183 194 194 190 186 188 188 184 182 198 196 198 192 163 165 166 165 168 172 168 170 176 179 168 143 143 164 200 215 200 193 180 178 189 202 219 225 192 197 217 228 227 222
260 250 193 214 181 148 264 251 240 223 215 206 214 199 169 200 170 157 184 227 219 223 179 158 199 179 200 202 198 203 207 196 190 195 193 186 191 200 187 180 187 188 185 187 190 183 167 183 184 185 166 167 196 199 196 187 133 155 167 168 174 176 173 173 175 181 169 149 136 159 159 184 234 196 186 180 188 210 216 222 206 218 221 218 226 227 223
241 263 216 134 127 217 232 227 197 190 204 199 209 216 195 219 161 198 201 229 287 100 151 185 200 191 203 203 209 194 180 175 177 182 187 196 195 190 188 188 178 164 157 160 172 175 179 185 189 184 182 190 200 192 176 153 161 164 169 178 179 178 175 177 174 163 147 147 141 144 112 136 258 229 190 192 197 202 220 226 205 217 222 218 221 223 222
269 333 76 132 215 234 239 280 227 205 209 197 183 118 94 332 306 306 281 259 241 226 205 196 198 208 252 73 124 144 165 162 168 175 184 184 180 182 176 165 162 165 165 165 180 192 198 189 179 175 193 199 177 163 163 163 167 168 178 177 180 178 175 167 157 144 140 141 135 177 182 188 201 205 204 203 188 190 216 220 206 214 216 217 221 220 221
11 40 137 209 238 236 272 230 72 83 95 117 109 69 137 141 283 240 243 254 253 230 238 256 106 111 120 26 25 80 184 173 175 170 183 183 168 173 181 168 170 167 181 183 184 195 182 165 176 184 191 174 167 172 160 168 170 175 176 178 175 161 161 160 159 156 150 143 160 189 183 181 184 201 209 206 204 209 210 204 215 218 223 219 222 220 217
230 231 197 214 296 22 350 39 48 65 152 208 131 147 191 171 262 211 230 281 293 251 174 144 107 111 89 60 4 15 9 335 163 170 165 160 172 165 174 170 178 186 178 175 181 148 157 168 166 182 162 157 160 155 168 173 169 169 166 166 161 160 157 159 160 160 158 162 175 186 190 193 199 204 202 207 206 169 191 206 206 212 219 216 215 216 215
125 129 28 21 69 166 254 236 249 187 133 205 182 125 171 229 348 142 180 156 282 294 166 125 133 108 82 105 350 336 346 347 5 33 114 117 131 150 151 141 110 115 116 107 128 141 138 138 142 138 147 158 158 165 172 162 162 163 167 169 163 165 168 167 162 158 160 167 181 192 194 201 201 206 208 206 183 167 193 201 213 216 216 219 217 216 215
70 151 165 205 156 236 203 251 270 292 158 170 163 85 104 291 347 321 142 104 127 119 117 78 82 106 116 174 289 315 337 359 54 83 70 78 84 94 103 112 108 117 134 137 128 112 111 120 143 144 151 154 160 175 175 170 166 164 169 167 167 170 172 169 160 159 162 175 189 194 197 203 205 209 210 194 160 162 193 207 221 218 216 219 222 218 219
283 138 120 218 212 111 4 280 306 315 332 257 74 109 207 298 343 317 106 104 93 92 107 99 64 100 121 171 320 312 345 44 47 90 95 81 73 61 70 72 100 108 114 97 84 99 123 148 152 156 153 161 172 179 177 160 165 167 173 173 173 171 165 163 164 167 175 185 190 191 197 199 203 208 193 153 166 183 202 206 218 217 213 212 216 213 199
310 301 231 309 293 275 288 323 319 322 312 76 109 174 221 338 331 329 265 103 109 111 84 82 101 141 167 180 231 338 263 81 58 65 74 78 76 72 68 65 61 65 44 53 81 115 128 140 146 150 155 157 184 177 155 156 170 170 163 164 170 167 163 164 172 180 186 191 191 195 196 198 202 194 178 182 179 190 201 203 217 223 216 215 214 210 196
321 279 151 211 239 239 318 318 315 290 83 148 210 216 233 307 344 341 347 95 95 90 83 79 72 73 63 125 106 74 64 81 80 65 73 73 68 70 74 76 82 83 65 61 63 53 57 115 125 145 155 172 157 135 135 155 162 146 155 164 166 164 169 174 180 185 188 194 197 194 189 186 180 191 189 186 189 190 197 203 215 220 213 204 197 185 187
282 303 19 107 126 229 24 323 332 44 116 224 179 123 32 23 45 54 15 68 81 94 91 90 100 94 70 56 67 70 61 54 44 42 45 53 63 54 53 51 40 73 78 72 73 87 88 115 124 138 143 144 128 127 149 163 153 151 158 164 170 171 172 176 184 184 184 189 194 190 187 186 183 184 172 183 199 196 199 208 213 213 201 184 175 185 197
201 292 343 199 240 290 318 344 68 325 76 139 138 114 90 26 103 98 90 57 78 87 93 96 86 75 70 53 56 60 57 59 55 52 46 40 36 37 41 71 97 100 95 85 72 53 75 91 108 108 138 136 142 148 161 157 148 153 161 171 169 172 176 178 179 181 182 185 189 186 181 170 177 171 173 197 212 210 203 201 202 200 189 179 177 186 198
134 215 237 264 249 314 323 25 20 32 46 35 64 95 104 106 66 98 88 78 69 78 86 78 77 70 60 63 54 63 54 55 50 50 58 64 55 35 29 18 24 57 101 130 116 105 107 109 118 129 137 146 147 160 167 152 154 160 166 170 172 174 176 176 180 182 175 175 178 169 160 159 171 168 181 198 224 219 195 195 191 188 182 179 185 192 196
188 200 212 245 22 21 352 20 27 50 49 24 43 63 84 51 70 41 94 97 85 77 81 87 60 75 78 68 59 53 46 45 41 40 42 42 54 61 50 31 21 45 73 114 152 183 156 136 128 131 143 159 159 162 158 160 157 161 165 171 177 175 174 177 178 174 174 172 168 164 168 176 179 179 187 196 217 205 188 186 179 180 177 178 184 186 206
122 356 350 43 48 28 6 22 14 32 32 21 35 81 67 68 61 54 36 50 56 65 76 90 96 74 70 91 87 91 81 75 69 67 57 20 67 84 67 62 137 128 156 191 210 210 145 117 122 120 133 138 139 140 158 163 160 164 169 173 175 168 174 175 174 175 172 172 174 178 177 174 184 194 196 197 196 181 183 178 177 177 171 179 175 174 183
131 169 181 226 88 70 16 356 53 51 32 30 30 57 73 60 53 60 50 44 37 34 47 44 78 61 21 27 69 91 103 104 67 46 148 190 36 52 331 341 95 244 223 227 223 237 77 110 115 125 136 151 155 160 160 168 162 164 169 175 173 172 170 172 173 177 175 176 171 170 166 157 162 154 155 170 181 186 184 179 173 180 175 180 178 178 177
75 66 62 167 101 69 45 12 6 17 75 78 47 50 62 70 68 64 55 54 63 60 62 43 59 62 35 26 19 31 34 42 341 283 287 282 107 125 147 199 189 199 215 265 319 28 64 126 154 164 181 182 176 172 176 174 170 175 180 180 172 168 168 165 182 183 174 172 155 138 104 80 65 48 29 333 136 90 41 30 356 166 174 178 179 171 164
149 161 182 178 134 154 160 116 325 317 43 90 86 74 67 63 69 66 71 58 53 60 56 66 72 72 55 36 42 51 34 8 338 328 328 305 350 96 163 160 62 5 331 315 333 249 185 170 178 195 196 196 193 186 181 185 178 186 186 179 173 177 175 176 176 176 169 151 139 142 135 124 113 87 64 57 38 81 110 32 41 24 88 172 173 152 111
201 358 139 354 49 88 66 93 349 336 343 87 77 76 84 78 72 73 73 68 51 46 42 40 53 56 56 39 43 46 34 21 13 358 332 343 4 17 14 8 355 337 308 291 248 212 201 185 200 207 207 200 196 205 208 187 187 190 183 183 187 186 177 176 163 157 156 149 140 110 116 126 125 130 122 61 51 48 55 61 55 63 89 106 110 110 122
36 52 56 28 69 89 77 57 48 32 359 67 78 66 67 74 70 63 60 59 70 56 50 45 45 53 50 42 50 53 40 30 27 21 12 18 26 22 31 32 342 319 306 299 276 240 205 206 217 221 220 216 210 218 202 184 188 188 185 189 180 181 170 132 131 132 138 149 141 135 131 138 145 145 130 118 72 46 42 39 51 63 74 85 90 95 107
95 75 79 84 85 73 69 71 64 52 37 51 60 46 34 49 57 66 69 58 52 62 58 50 40 42 53 48 49 45 40 28 30 25 22 21 10 4 332 323 276 267 268 269 262 218 200 223 230 233 236 236 231 227 196 184 176 183 185 184 196 176 162 150 154 165 165 166 160 133 143 148 156 151 140 134 127 109 49 53 61 59 54 66 85 98 104
69 70 93 87 75 67 65 60 39 24 22 59 70 59 46 58 68 64 60 64 55 46 54 46 42 29 41 41 36 33 39 29 21 27 28 22 12 4 342 272 252 238 240 241 220 196 201 210 215 213 228 238 239 206 170 180 188 192 189 192 192 183 168 166 161 156 156 153 135 137 150 153 154 151 137 123 129 131 126 121 66 52 50 50 67 90 83
105 60 62 61 63 61 57 88 113 28 26 12 70 82 61 44 62 77 78 66 64 53 55 50 55 49 48 44 50 49 47 25 29 27 19 14 7 346 308 282 257 238 226 220 213 204 199 193 203 211 221 235 239 196 183 199 204 220 224 180 146 158 152 152 161 158 153 143 136 140 148 144 147 151 143 138 137 142 148 134 127 129 138 90 30 25 101
29 14 336 116 111 108 119 119 126 144 143 155 95 84 105 85 59 50 43 38 34 35 37 29 31 36 38 17 31 27 27 30 27 13 16 3 342 331 329 312 280 223 213 216 216 214 134 128 150 162 205 187 127 132 173 264 254 219 199 191 167 155 152 146 135 132 135 134 132 141 145 148 145 145 146 147 139 142 127 120 129 133 130 121 127 99 79
35 50 63 103 121 132 123 108 106 87 77 40 67 95 78 67 58 58 47 39 30 42 37 19 27 40 45 22 29 30 25 23 19 9 351 333 337 339 336 332 323 308 262 272 60 109 127 153 159 168 195 177 143 136 137 157 191 199 216 208 161 132 117 122 130 125 127 123 117 119 122 136 141 143 145 142 130 126 123 127 131 132 131 138 132 115 133
32 41 66 84 100 118 121 100 81 64 54 46 67 54 58 83 72 57 52 35 38 49 10 2 32 30 25 37 25 14 10 358 340 330 329 335 338 346 343 338 343 351 356 67 176 191 187 200 197 203 204 192 168 163 165 169 173 172 170 49 50 95 80 99 108 121 123 130 136 132 135 141 147 148 145 139 138 134 136 141 139 140 147 162 167 160 169
359 42 54 29 47 54 73 86 100 109 112 74 86 78 62 75 85 69 51 46 41 39 12 21 18 15 15 11 339 322 317 322 327 330 331 333 340 359 353 352 351 316 308 288 227 197 200 210 217 224 202 189 125 46 30 28 123 127 131 137 138 125 135 140 146 146 142 137 139 140 139 141 149 148 147 143 143 150 154 150 148 150 161 169 173 175 169
135 102 99 62 56 69 67 72 75 52 42 45 53 50 52 69 71 69 56 46 34 22 14 18 12 349 321 312 322 326 327 333 332 330 330 333 338 349 349 328 280 277 277 275 249 214 207 208 230 254 269 305 76 104 109 100 101 105 89 88 85 76 143 137 116 117 120 133 132 122 126 132 137 139 142 152 157 158 158 166 166 166 169 174 182 179 162
121 82 53 38 49 57 59 26 59 43 40 51 55 74 69 74 88 93 93 81 22 14 17 356 336 310 295 299 324 333 331 319 297 313 331 331 319 327 330 309 288 274 283 297 324 355 8 8 5 28 25 26 77 98 110 151 162 147 132 118 138 140 123 116 121 122 122 132 140 145 145 145 144 149 162 163 160 154 162 170 172 169 174 182 176 163 167
90 106 132 141 127 108 95 50 32 60 56 64 68 60 57 46 61 57 59 54 29 14 358 323 301 293 288 309 314 315 321 346 347 330 311 303 301 301 292 300 279 266 289 357 64 82 91 94 87 80 93 100 80 69 75 69 28 22 105 129 130 127 118 125 131 125 130 136 140 149 146 146 154 167 172 165 164 166 170 174 174 175 173 173 170 165 161
97 112 126 123 108 108 112 104 89 77 77 60 35 26 33 33 35 15 25 39 12 315 285 284 292 288 302 310 321 316 317 305 291 289 291 292 292 292 282 273 305 356 343 347 49 73 104 128 133 118 114 108 108 105 103 94 92 69 24 17 105 114 127 135 131 136 132 128 128 128 139 159 171 176 172 169 170 170 171 173 175 174 167 169 166 162 172
51 52 41 38 36 48 58 61 65 104 116 108 93 62 47 26 41 33 8 332 283 300 326 332 331 334 339 342 336 331 326 312 304 293 292 289 286 293 305 286 268 282 270 297 337 1 40 144 138 122 104 107 116 131 134 115 82 74 70 51 24 37 41 28 45 93 105 124 131 143 140 161 164 165 166 163 162 164 167 169 174 176 170 164 163 168 164
38 52 42 39 31 39 38 30 20 21 30 40 40 36 32 28 24 338 321 349 0 0 351 352 1 359 347 336 329 323 322 324 314 306 300 297 295 299 313 330 355 339 350 339 352 349 335 300 116 112 110 115 112 107 125 119 108 119 122 141 163 159 163 155 142 130 138 141 138 137 145 148 154 159 162 162 166 170 175 175 174 173 164 159 163 167 165
29 44 49 46 33 36 31 20 16 39 38 43 33 45 41 23 10 8 2 1 5 355 359 11 2 338 345 354 7 11 1 355 352 350 348 343 342 348 7 23 4 2 3 328 330 341 357 126 119 99 82 74 74 68 99 116 126 134 137 145 154 162 159 156 146 143 140 140 135 138 142 141 147 155 155 142 150 162 172 175 175 172 166 168 166 173 178
38 36 46 46 47 37 28 20 25 32 38 38 22 25 18 17 13 13 11 8 2 6 7 2 359 8 17 16 12 11 12 10 8 3 15 13 20 50 33 21 338 275 253 274 354 52 59 68 68 75 95 95 105 120 133 142 160 147 128 127 135 144 151 145 138 134 119 120 116 120 126 129 141 145 144 153 154 158 170 173 173 171 164 170 169 182 184
33 33 32 36 40 29 33 26 24 20 20 41 44 22 355 7 9 7 10 14 10 5 2 358 8 13 4 8 6 8 359 7 15 13 13 15 40 52 43 33 3 345 234 152 109 77 80 82 84 81 87 103 96 85 125 139 124 111 116 109 115 109 106 115 116 113 115 122 135 137 131 145 148 144 144 151 163 169 173 177 177 170 172 175 185 184 184
23 17 15 27 23 24 27 21 12 -0 14 20 22 19 20 24 2 21 19 9 354 359 360 1 349 7 6 352 350 344 340 350 358 5 0 20 34 30 41 24 341 331 61 106 90 82 95 110 91 68 46 59 150 147 115 121 101 105 115 135 134 128 109 115 116 122 123 131 125 110 110 98 106 115 128 159 180 180 182 186 181 179 177 185 189 189 195
4 12 15 13 9 8 4 7 9 12 8 11 14 16 14 15 27 22 9 8 3 353 356 348 358 21 16 344 323 335 342 342 343 341 355 1 349 349 30 7 344 340 101 100 94 97 109 114 95 87 22 231 193 140 109 74 90 102 103 113 109 104 107 107 99 100 98 96 102 109 117 118 125 129 139 155 178 200 199 196 193 189 191 194 193 194 194
5 9 3 2 356 358 3 2 8 3 357 3 8 3 356 2 12 11 8 5 355 350 353 346 341 356 5 355 323 337 346 338 347 351 342 330 278 234 192 256 291 294 62 62 88 75 71 71 81 262 161 138 135 132 115 100 96 98 97 102 100 99 87 92 95 100 114 121 128 141 145 154 160 165 172 180 188 192 201 207 207 205 201 202 201 198 202
346 353 357 353 350 344 359 4 0 9 14 349 341 336 349 351 1 2 354 354 352 346 349 342 347 349 350 352 358 355 342 349 341 344 5 330 346 348 274 217 251 266 280 293 60 79 95 103 181 217 185 140 120 105 96 97 98 100 104 96 100 107 113 114 120 126 133 137 143 148 156 161 167 178 190 216 214 207 203 206 210 213 212 209 210 207 205
333 332 328 318 315 339 3 -0 4 340 313 295 309 334 353 353 341 354 358 329 330 334 342 345 345 340 340 343 342 311 288 295 287 303 318 324 338 321 308 281 227 236 276 284 58 97 159 289 257 245 148 123 119 110 98 99 100 98 99 107 110 111 118 124 132 138 138 141 140 145 150 155 162 166 178 203 218 230 230 227 231 222 213 212 205 204 205
317 309 302 306 311 307 295 282 292 334 335 343 354 348 1 1 340 337 342 334 318 313 305 311 309 306 307 312 316 310 294 287 273 233 226 225 236 263 290 290 188 211 221 185 85 327 310 262 284 297 129 123 120 108 107 108 108 105 104 114 120 119 122 131 127 130 137 144 154 173 169 171 167 182 187 203 209 225 243 243 241 234 229 229 224 216 204
307 312 304 281 282 279 334 354 305 17 6 8 4 336 332 348 339 329 326 317 286 291 302 288 276 268 250 242 253 295 319 326 317 289 228 237 263 266 285 215 166 173 141 136 119 145 246 258 216 157 138 135 128 124 128 123 125 129 129 127 130 136 139 146 151 160 156 159 166 177 193 197 199 201 195 207 214 231 245 245 243 240 234 229 232 230 219
313 303 284 280 278 295 355 59 53 27 2 324 299 302 307 322 321 315 312 310 312 308 298 291 277 274 268 256 237 212 216 250 327 312 324 326 292 301 341 105 163 168 168 171 189 192 226 167 146 144 149 143 120 136 146 136 133 141 149 153 151 163 168 167 174 184 185 194 180 170 201 219 221 218 225 240 253 244 232 235 246 251 244 232 225 216 210
319 290 282 306 318 318 315 328 4 347 305 273 301 297 305 326 319 317 315 323 332 330 323 320 317 312 308 285 286 277 256 197 191 255 291 339 316 263 302 220 198 180 156 171 186 205 213 158 171 163 171 145 138 154 158 166 163 164 170 174 180 182 183 193 198 190 190 198 200 200 199 204 200 206 226 233 250 263 241 240 237 240 242 236 234 225 218
299 321 356 13 343 292 272 272 280 263 264 299 291 297 310 334 340 320 321 320 312 309 309 305 308 303 295 299 289 256 282 292 273 261 280 273 255 256 240 232 229 198 184 188 194 218 232 211 199 225 197 146 170 171 184 187 190 186 182 185 184 191 197 203 201 200 203 200 196 199 199 214 217 225 220 226 235 247 249 248 243 239 231 230 235 229 217
326 333 305 279 246 243 243 223 249 288 296 288 284 290 310 318 295 291 300 301 312 318 313 314 309 301 305 288 279 279 257 269 284 291 295 283 233 238 238 224 227 223 206 202 207 213 214 218 208 222 205 176 186 190 193 199 203 201 198 196 201 195 192 197 194 193 200 203 203 207 211 212 214 220 223 227 231 243 251 247 247 240 226 230 227 222 216
286 276 285 289 287 297 308 294 274 262 260 272 279 288 286 281 302 315 316 313 304 277 293 314 314 306 281 274 287 280 265 244 236 255 273 276 260 251 256 249 243 240 229 223 225 226 222 223 220 219 212 196 197 200 208 208 208 214 214 210 200 194 194 192 193 198 209 211 212 212 218 210 200 212 227 230 240 248 254 248 242 240 234 234 231 227 218